SHIJIAN-23 (SJ-23)

Last updated on Thu Nov 21 2024 00:02:45 GMT+0000 (Coordinated Universal Time)

1 55131U 23002A 24325.77103951 -.00000360 00000+0 00000+0 0 9999 2 55131 2.2374 85.6704 0002072 183.8721 182.7599 1.00458916 6940
UTC large
Height (km)
Speed (km/s)
/
Latitude / Longitude
Inclination (degrees)
Orbital Period (minutes)
Azimuth
Elevation
Range (km)
Doppler Factor

Next 0 passes for location: London (51.5072 / 0.1276)

Sorry there are no passes over London.